When you browse on this site, cookies collect data to enhance your experience and personalize the content and advertising you see.
Visit our Privacy Policy to learn more. By continuing to use the site, you agree to this use of cookies and data.
EN

Hourly Weather Sinemorec

Today, 9 August, Sunday

Time Temperature Precipitation Wind Pressure Humidity
00:00 +26°C° 0 mm 7 mps 754 mmHg 81%
01:00 +26°C° 0 mm 7 mps 754 mmHg 82%
02:00 +26°C° 0 mm 7 mps 754 mmHg 83%
03:00 +26°C° 0.1 mm 7 mps 754 mmHg 83%
04:00 +26°C° 0.1 mm 7 mps 754 mmHg 83%
05:00 +26°C° 0.1 mm 7 mps 754 mmHg 83%
06:00 +27°C° 0.1 mm 7 mps 754 mmHg 77%
07:00 +27°C° 0.1 mm 8 mps 754 mmHg 72%
08:00 +28°C° 0.1 mm 8 mps 754 mmHg 66%
09:00 +29°C° 0.3 mm 9 mps 754 mmHg 63%
10:00 +29°C° 0.3 mm 9 mps 755 mmHg 61%
11:00 +31°C° 0.3 mm 9 mps 755 mmHg 59%
12:00 +31°C° 0.5 mm 9 mps 755 mmHg 59%
13:00 +29°C° 0.5 mm 9 mps 755 mmHg 60%
14:00 +29°C° 0.5 mm 9 mps 755 mmHg 61%
15:00 +29°C° 0.2 mm 9 mps 755 mmHg 63%
16:00 +28°C° 0.2 mm 9 mps 755 mmHg 64%
17:00 +28°C° 0.2 mm 8 mps 755 mmHg 66%
18:00 +27°C° 0 mm 8 mps 755 mmHg 71%
19:00 +26°C° 0 mm 7 mps 755 mmHg 75%
20:00 +24°C° 0 mm 7 mps 755 mmHg 80%
21:00 +24°C° 0 mm 6 mps 755 mmHg 82%
22:00 +23°C° 0 mm 5 mps 755 mmHg 84%
23:00 +23°C° 0 mm 5 mps 756 mmHg 87%

Tomorrow, 10 August, Monday

Time Temperature Precipitation Wind Pressure Humidity
00:00 +23°C° 0 mm 5 mps 756 mmHg 87%
01:00 +23°C° 0 mm 5 mps 756 mmHg 87%
02:00 +22°C° 0 mm 5 mps 755 mmHg 88%
03:00 +22°C° 0 mm 5 mps 755 mmHg 87%
04:00 +22°C° 0 mm 5 mps 755 mmHg 86%
05:00 +22°C° 0 mm 6 mps 755 mmHg 85%
06:00 +23°C° 0 mm 6 mps 755 mmHg 78%
07:00 +24°C° 0 mm 6 mps 756 mmHg 72%
08:00 +26°C° 0 mm 6 mps 756 mmHg 65%
09:00 +27°C° 0 mm 6 mps 756 mmHg 59%
10:00 +29°C° 0 mm 7 mps 756 mmHg 52%
11:00 +30°C° 0 mm 7 mps 756 mmHg 45%
12:00 +30°C° 0 mm 7 mps 756 mmHg 45%
13:00 +30°C° 0 mm 7 mps 756 mmHg 44%
14:00 +32°C° 0 mm 7 mps 756 mmHg 44%
15:00 +30°C° 0 mm 6 mps 756 mmHg 48%
16:00 +29°C° 0 mm 6 mps 756 mmHg 52%
17:00 +29°C° 0 mm 6 mps 756 mmHg 55%
18:00 +27°C° 0 mm 5 mps 756 mmHg 65%
19:00 +26°C° 0 mm 5 mps 756 mmHg 76%
20:00 +23°C° 0 mm 4 mps 757 mmHg 86%
21:00 +23°C° 0 mm 4 mps 757 mmHg 87%
22:00 +22°C° 0 mm 3 mps 757 mmHg 88%
23:00 +22°C° 0 mm 3 mps 757 mmHg 89%

Day after tomorrow, 11 August, Tuesday

Time Temperature Precipitation Wind Pressure Humidity
00:00 +21°C° 0 mm 3 mps 757 mmHg 89%
01:00 +21°C° 0 mm 3 mps 757 mmHg 90%
02:00 +21°C° 0 mm 2 mps 757 mmHg 90%
03:00 +21°C° 0 mm 3 mps 757 mmHg 91%
04:00 +20°C° 0 mm 3 mps 757 mmHg 91%
05:00 +20°C° 0 mm 3 mps 757 mmHg 92%
06:00 +22°C° 0 mm 3 mps 757 mmHg 84%
07:00 +23°C° 0 mm 4 mps 757 mmHg 75%
08:00 +26°C° 0 mm 4 mps 757 mmHg 66%
09:00 +28°C° 0 mm 4 mps 758 mmHg 59%
10:00 +29°C° 0 mm 4 mps 758 mmHg 51%
11:00 +30°C° 0 mm 4 mps 758 mmHg 43%
12:00 +30°C° 0 mm 4 mps 758 mmHg 43%
13:00 +32°C° 0 mm 4 mps 757 mmHg 42%
14:00 +32°C° 0 mm 4 mps 757 mmHg 42%
15:00 +30°C° 0 mm 4 mps 757 mmHg 44%
16:00 +30°C° 0 mm 4 mps 757 mmHg 46%
17:00 +29°C° 0 mm 4 mps 757 mmHg 49%
18:00 +27°C° 0 mm 3 mps 757 mmHg 61%
19:00 +25°C° 0 mm 2 mps 757 mmHg 72%
20:00 +23°C° 0 mm 1 mps 758 mmHg 84%
21:00 +23°C° 0 mm 1 mps 758 mmHg 83%
22:00 +22°C° 0 mm 1 mps 758 mmHg 83%
23:00 +22°C° 0 mm 1 mps 758 mmHg 82%

12 August, Wednesday

Time Temperature Precipitation Wind Pressure Humidity
00:00 +22°C° 0 mm 1 mps 757 mmHg 79%
01:00 +22°C° 0 mm 1 mps 757 mmHg 76%
02:00 +21°C° 0 mm 2 mps 757 mmHg 73%
03:00 +21°C° 0 mm 2 mps 757 mmHg 72%
04:00 +21°C° 0 mm 2 mps 757 mmHg 70%
05:00 +20°C° 0 mm 2 mps 757 mmHg 69%
06:00 +24°C° 0 mm 2 mps 757 mmHg 63%
07:00 +26°C° 0 mm 2 mps 757 mmHg 57%
08:00 +28°C° 0 mm 2 mps 757 mmHg 51%
09:00 +29°C° 0 mm 2 mps 757 mmHg 48%
10:00 +30°C° 0 mm 3 mps 757 mmHg 45%
11:00 +31°C° 0 mm 3 mps 757 mmHg 43%
12:00 +31°C° 0 mm 3 mps 757 mmHg 42%
13:00 +31°C° 0 mm 3 mps 757 mmHg 41%
14:00 +33°C° 0 mm 4 mps 757 mmHg 40%
15:00 +31°C° 0 mm 3 mps 757 mmHg 43%
16:00 +30°C° 0 mm 3 mps 757 mmHg 45%
17:00 +30°C° 0 mm 3 mps 757 mmHg 47%
18:00 +28°C° 0 mm 3 mps 757 mmHg 58%
19:00 +26°C° 0 mm 2 mps 757 mmHg 69%
20:00 +23°C° 0 mm 2 mps 757 mmHg 80%
21:00 +23°C° 0 mm 2 mps 757 mmHg 81%
22:00 +23°C° 0 mm 1 mps 757 mmHg 82%
23:00 +22°C° 0 mm 1 mps 758 mmHg 83%

13 August, Thursday

Time Temperature Precipitation Wind Pressure Humidity
00:00 +22°C° 0 mm 1 mps 757 mmHg 82%
01:00 +21°C° 0 mm 2 mps 757 mmHg 82%
02:00 +20°C° 0 mm 2 mps 757 mmHg 82%
03:00 +20°C° 0 mm 2 mps 757 mmHg 81%
04:00 +20°C° 0 mm 2 mps 757 mmHg 81%
05:00 +20°C° 0 mm 2 mps 757 mmHg 80%
06:00 +22°C° 0 mm 3 mps 758 mmHg 75%
07:00 +25°C° 0 mm 3 mps 758 mmHg 69%
08:00 +27°C° 0 mm 3 mps 758 mmHg 63%
09:00 +28°C° 0 mm 4 mps 758 mmHg 59%
10:00 +29°C° 0 mm 4 mps 758 mmHg 54%
11:00 +30°C° 0 mm 4 mps 758 mmHg 50%
12:00 +32°C° 0 mm 4 mps 758 mmHg 48%
13:00 +32°C° 0 mm 4 mps 758 mmHg 47%
14:00 +32°C° 0 mm 4 mps 758 mmHg 45%
15:00 +30°C° 0 mm 4 mps 758 mmHg 49%
16:00 +30°C° 0 mm 4 mps 758 mmHg 53%
17:00 +29°C° 0 mm 4 mps 758 mmHg 57%
18:00 +27°C° 0 mm 4 mps 758 mmHg 68%
19:00 +26°C° 0 mm 4 mps 758 mmHg 79%
20:00 +23°C° 0 mm 4 mps 758 mmHg 90%
21:00 +23°C° 0 mm 4 mps 759 mmHg 91%
22:00 +22°C° 0 mm 4 mps 759 mmHg 93%
23:00 +22°C° 0 mm 3 mps 759 mmHg 94%

14 August, Friday

Time Temperature Precipitation Wind Pressure Humidity
00:00 +22°C° 0 mm 3 mps 759 mmHg 94%
01:00 +22°C° 0 mm 3 mps 759 mmHg 93%
02:00 +22°C° 0 mm 3 mps 758 mmHg 93%
03:00 +21°C° 0 mm 3 mps 758 mmHg 91%
04:00 +21°C° 0 mm 3 mps 758 mmHg 89%
05:00 +21°C° 0 mm 3 mps 758 mmHg 87%
06:00 +22°C° 0 mm 3 mps 758 mmHg 77%
07:00 +25°C° 0 mm 4 mps 759 mmHg 67%
08:00 +26°C° 0 mm 4 mps 759 mmHg 57%
09:00 +27°C° 0 mm 4 mps 759 mmHg 53%
10:00 +28°C° 0 mm 4 mps 759 mmHg 50%
11:00 +29°C° 0 mm 5 mps 758 mmHg 46%
12:00 +29°C° 0 mm 5 mps 758 mmHg 45%
13:00 +29°C° 0 mm 5 mps 758 mmHg 45%
14:00 +29°C° 0 mm 5 mps 758 mmHg 44%
15:00 +28°C° 0 mm 5 mps 757 mmHg 47%
16:00 +28°C° 0 mm 5 mps 757 mmHg 49%
17:00 +27°C° 0 mm 5 mps 757 mmHg 52%
18:00 +25°C° 0 mm 4 mps 757 mmHg 61%
19:00 +23°C° 0 mm 4 mps 758 mmHg 70%
20:00 +21°C° 0 mm 3 mps 758 mmHg 79%
21:00 +21°C° 0 mm 3 mps 758 mmHg 81%
22:00 +21°C° 0 mm 3 mps 758 mmHg 82%
23:00 +21°C° 0 mm 2 mps 758 mmHg 83%
Show more